Regional Weather Roundup
Issued by NWS Green Bay, WI

Home | Current Version | Previous Version | Graphics & Text | Print | Product List | Glossary Off
Versions: 1 2 3 4 5 6 7 8 9 10 11 12 13 14 15 16 17 18 19 20 21 22 23 24 25 26 27 28 29 30 31 32 33 34 35 36 37 38 39 40 41 42 43 44 45 46 47 48 49 50

346
ASUS43 KGRB 270800
RWRGRB

NORTH-CENTRAL AND NORTHEAST WISCONSIN REGIONAL WEATHER ROUNDUP
NATIONAL WEATHER SERVICE GREEN BAY WI
300 AM CDT WED JUL 27 2016

WIZ005-009-010>012-018-019-270900-
NORTH CENTRAL WISCONSIN

CITY           SKY/WX    TMP DP  RH WIND       PRES   REMARKS
IRONWOOD       CLOUDY    70  70 100 SE3       29.95S
MANITOWISH WTR NOT AVBL
ARBOR VITAE    NOT AVBL
EAGLE RIVER    NOT AVBL
LAND O LAKES   NOT AVBL
RHINELANDER    CLOUDY    64  60  87 W7        29.99F
PHILLIPS       NOT AVBL
ANTIGO         NOT AVBL
TOMAHAWK       NOT AVBL
MERRILL        NOT AVBL
$$

WIZ013-073-270900-
NORTHEAST WISCONSIN

CITY           SKY/WX    TMP DP  RH WIND       PRES   REMARKS
IRON MOUNTAIN  CLOUDY    68  61  78 NW12      29.99R
MARINETTE      PTCLDY   N/A N/A N/A N7        29.97R
$$

WIZ017-030-035>037-045-270900-
CENTRAL WISCONSIN

CITY           SKY/WX    TMP DP  RH WIND       PRES   REMARKS
MEDFORD        NOT AVBL
WAUSAU         PTCLDY    71  64  78 NW3       29.98F
MOSINEE        NOT AVBL
MARSHFIELD     CLEAR     69  66  90 W3        29.99F
WISC RAPIDS    CLEAR     69  65  86 SW3       30.00F
STEVENS POINT  NOT AVBL
WAUPACA        NOT AVBL
SHAWANO        NOT AVBL
CLINTONVILLE   NOT AVBL
WAUTOMA        CLEAR     67  66  97 CALM      29.99F
$$

WIZ038-039-048-051-270900-
FOX VALLEY

CITY           SKY/WX    TMP DP  RH WIND       PRES   REMARKS
NWS GREEN BAY  CLEAR     73  70  90 SW3       29.96S
APPLETON       NOT AVBL
OSHKOSH        CLEAR     72  66  81 W3        29.98S
FOND DU LAC    CLEAR     70  65  84 SW3       29.98F
$$

WIZ022-050-052-270900-
EAST CENTRAL WISCONSIN

CITY           SKY/WX    TMP DP  RH WIND       PRES   REMARKS
EPHRAIM        NOT AVBL
WASHINGTON ISL NOT AVBL
STURGEON BAY   CLEAR     74  69  85 SW7       29.96S
MANITOWOC      NOT AVBL
SHEBOYGAN      CLEAR     71  64  78 NW7       29.97F
$$

LMZ563-521-522-541>543-270900-
LAKESHORE

STATION/POSITION TIME  TEMP    WIND        PRES    VSBY  WAVE
                       AIR SEA DIR/SP/G                  HT/PER
                 (UTC) (F)     (DEG/KT/KT) (MB)    (MI)  (FT/S)
SHEBOYGAN LKSHOR 0700   74     250/  9/ 10 1014.8F
KEWAUNEE LKSHORE 0700   76     280/  5/  7 1013.8R
ALGOMA MARINA    0713          300/  6/ 10   N/A
NORTHPORT PIER   0700   75     280/  6/ 10 1013.5R
N MID LAKE BUOY  0650   71 69  260/  8/ 10 1012.6R         2/ 5
S GREEN BAY BUOY 0700   72 74   20/  2/  2   N/A
SISTER BAY LKSHO 0721   74     270/  7/  7   N/A
CHAMBERS ISLAND  0700   72     230/  2/  4 1013.9R
MENOMINEE LKSHOR 0700   75     240/  5/  6 1013.0S
$$




USA.gov is the U.S. government's official web portal to all federal, state and local government web resources and services.